[[{"header":{"parameterUnit":"m.s-1","parameterCategory":1,"la1":30.2991,"la2":30.254,"lo1":-89.0895,"lo2":-89.0444,"dy":0.0017,"dx":0.0017,"nx":28,"ny":28,"refTime":"2025-04-04T03:00:00:Z","depth":0,"parameterNumber":2,"parameterNumberName":"U-component_of_WINDS"},"data":[0,0,0,0,0,0,0,0,0,0,0,0,0,0,0,0,0,0,0,0,0,0,0,0,0,0,0,0,0,0,0,0,0,0,0,0,0,0,0,0,0,0,0,0,0,0,0,0,0,0,0,0,0,0,0,0,0,0,-4.6369,-4.6371,0,-4.6491,-4.6492,-4.6494,-4.6511,-4.6509,-4.6508,-4.6507,-4.6631,-4.6636,-4.664,0,0,0,0,0,0,0,0,0,0,0,0,0,-4.6152,-4.6156,-4.6369,-4.6371,-4.6372,-4.6491,-4.6492,-4.6494,-4.6511,-4.6509,-4.6508,-4.6507,-4.663,-4.6635,-4.664,0,0,0,0,0,0,0,0,0,0,0,0,0,-4.6257,-4.6157,-4.6369,-4.6395,-4.6398,-4.649,-4.6492,-4.6494,-4.6511,-4.6509,-4.6508,-4.6506,-4.6628,-4.6635,-4.6641,-4.6715,0,0,-4.6661,-4.6664,0,0,0,0,0,0,0,0,-4.6251,-4.6265,-4.639,-4.6393,-4.6397,-4.6484,-4.6461,-4.6568,-4.6512,-4.6468,-4.6507,-4.6505,-4.6584,-4.6594,-4.662,-4.6721,-4.6726,-4.6662,-4.6665,-4.6668,-4.667,0,0,0,0,0,0,0,-4.6244,-4.626,-4.6417,-4.6391,-4.6396,-4.6401,-4.6414,-4.6481,-4.6534,-4.6472,-4.6473,-4.6488,-4.6585,-4.6614,-4.6623,-4.6728,-4.6661,-4.6667,-4.6671,-4.6674,-4.6895,-4.6897,0,0,0,0,0,0,-4.6232,-4.6254,-4.6413,-4.6421,-4.6319,-4.6406,-4.642,-4.6458,-4.6533,-4.6543,-4.6489,-4.6488,-4.6604,-4.6616,-4.6628,-4.6718,-4.6668,-4.6674,-4.6678,-4.6893,-4.6896,-4.6898,0,0,0,0,0,0,-4.6227,-4.6246,-4.6408,-4.6338,-4.6359,-4.6411,-4.6453,-4.6461,-4.6489,-4.6546,-4.6555,-4.6508,-4.6603,-4.6618,-4.6693,-4.6723,-4.6677,-4.6683,-4.6891,-4.6894,-4.6897,-4.6901,0,0,0,0,0,0,-4.6221,-4.6244,-4.6273,-4.6338,-4.6363,-4.6472,-4.6455,-4.6465,-4.6501,-4.6501,-4.6567,-4.6576,-4.6603,-4.6683,-4.67,-4.6731,-4.6688,-4.6889,-4.6892,-4.6896,-4.6898,-4.6904,-4.6908,0,0,0,0,0,-4.6213,-4.6269,-4.6274,-4.6293,-4.6399,-4.6474,-4.6487,-4.6517,-4.6503,-4.6532,-4.6569,-4.6574,-4.6718,-4.6691,-4.6709,-4.6743,-4.6887,-4.6891,-4.6896,-4.6896,-4.6903,-4.6908,0,0,0,0,0,0,-4.6205,-4.6278,-4.6284,-4.6363,-4.6412,-4.6476,-4.6514,-4.6523,-4.6576,-4.6574,-4.6608,-4.6623,-4.6696,-4.6728,-4.6696,-4.6819,-4.6801,-4.6809,-4.6795,-4.6802,-4.6807,-4.6796,-4.6694,0,0,0,0,0,-4.6213,-4.6267,-4.6328,-4.6392,-4.6416,-4.6461,-4.6494,-4.6513,-4.6564,-4.6585,-4.6627,-4.6677,-4.6733,-4.677,-4.6825,-4.6904,-4.6918,-4.6937,-4.6941,-4.6945,-4.6951,-4.6995,-4.7003,-4.6912,-4.6912,-4.6912,0,0,-4.6229,-4.6275,-4.6307,-4.6391,-4.6431,-4.6486,-4.6478,-4.6537,-4.6578,-4.6594,-4.6666,-4.6699,-4.6758,-4.6834,-4.6871,-4.6863,-4.698,-4.6951,-4.6953,-4.6958,-4.7,-4.7009,-4.7016,-4.6915,-4.6915,-4.6914,0,0,-4.6285,-4.6327,-4.6384,-4.6424,-4.6485,-4.6515,-4.6528,-4.6592,-4.6614,-4.6687,-4.6701,-4.6751,-4.6847,-4.6888,-4.6921,-4.6994,-4.7001,-4.7012,-4.7036,-4.7078,-4.7085,-4.7092,-4.7116,-4.7125,-4.7018,-4.7018,-4.7018,0,-4.6297,-4.6381,-4.6412,-4.647,-4.6506,-4.6525,-4.6583,-4.662,-4.6696,-4.672,-4.6712,-4.6833,-4.6874,-4.696,-4.6978,-4.7005,-4.7021,-4.7003,-4.7082,-4.7089,-4.7095,-4.7119,-4.7128,-4.7019,-4.7019,-4.7019,-4.7018,0,-4.6392,-4.645,-4.6489,-4.6561,-4.6602,-4.666,-4.67,-4.6738,-4.6753,-4.6784,-4.6858,-4.6908,-4.6973,-4.6995,-4.7011,-4.7084,-4.7077,-4.7075,-4.7057,-4.7104,-4.7127,-4.7136,-4.702,-4.7019,-4.7019,-4.7019,0,0,-4.6445,-4.6535,-4.6548,-4.6581,-4.665,-4.6695,-4.6754,-4.6818,-4.6849,-4.6901,-4.6951,-4.7033,-4.7031,-4.7068,-4.7089,-4.7126,-4.7179,-4.7119,-4.7121,-4.7127,-4.7261,-4.7261,-4.7271,-4.7185,-4.7187,-4.7189,-4.7256,0,-4.6509,-4.6614,-4.6644,-4.6732,-4.6785,-4.6804,-4.6855,-4.6903,-4.6933,-4.6983,-4.7017,-4.7074,-4.7068,-4.709,-4.7128,-4.7165,-4.7207,-4.7161,-4.7231,-4.7233,-4.7213,-4.7284,-4.7284,-4.7345,-4.7265,-4.7267,-4.7268,0,-4.6596,-4.665,-4.6743,-4.6804,-4.6828,-4.6873,-4.6934,-4.6982,-4.7036,-4.7056,-4.7098,-4.7116,-4.7178,-4.7159,-4.7244,-4.7212,-4.7243,-4.7266,-4.7269,-4.7275,-4.7251,-4.729,-4.7365,-4.7373,-4.7283,-4.7282,-4.7281,0,-4.6624,-4.6719,-4.6787,-4.6815,-4.6889,-4.692,-4.6952,-4.7005,-4.7042,-4.7095,-4.7119,-4.7179,-4.7212,-4.7258,-4.7291,-4.7275,-4.7374,-4.7357,-4.7391,-4.739,-4.7409,-4.7407,-4.7488,-4.7432,-4.7432,-4.7432,-4.7432,0,-4.669,-4.6746,-4.68,-4.6842,-4.6905,-4.694,-4.7002,-4.7035,-4.7082,-4.713,-4.7151,-4.7196,-4.7238,-4.7289,-4.7316,-4.7382,-4.7397,-4.7414,-4.742,-4.7411,-4.7408,-4.743,-4.7426,-4.7434,-4.7434,-4.7433,-4.7433,0,-4.6731,-4.677,-4.6845,-4.6909,-4.6926,-4.697,-4.7024,-4.7066,-4.7097,-4.7158,-4.7174,-4.7224,-4.7285,-4.7323,-4.7401,-4.7419,-4.7491,-4.7496,-4.7472,-4.7474,-4.7505,-4.7501,-4.7601,-4.7616,-4.7551,-4.7552,-4.7552,0,-4.677,-4.6813,-4.6882,-4.6916,-4.6948,-4.7002,-4.7039,-4.7076,-4.7113,-4.7179,-4.7212,-4.7274,-4.7325,-4.7422,-4.7464,-4.7524,-4.753,-4.7561,-4.7539,-4.7528,-4.7528,-4.7525,-4.7529,-4.7564,-4.7565,-4.7565,-4.7565,0,-4.6835,-4.6852,-4.6904,-4.6963,-4.7007,-4.7056,-4.7104,-4.7131,-4.7175,-4.7217,-4.7279,-4.7319,-4.7398,-4.7459,-4.7522,-4.7555,-4.7568,-4.7572,-4.7583,-4.7573,-4.7556,-4.7564,-4.748,-4.7569,-4.7569,-4.7569,-4.7568,-4.7568,-4.6875,-4.6914,-4.6968,-4.7025,-4.7066,-4.7111,-4.7152,-4.7189,-4.7241,-4.7308,-4.7327,-4.7391,-4.7445,-4.7531,-4.7566,-4.7617,-4.7613,-4.7629,-4.7632,-4.7635,-4.7634,-4.755,-4.7629,-4.7629,-4.7629,-4.7629,-4.7629,0,-4.6939,-4.6975,-4.7028,-4.7094,-4.714,-4.7148,-4.7202,-4.724,-4.7296,-4.7345,-4.7395,-4.7466,-4.7526,-4.7574,-4.7635,-4.7667,-4.7674,-4.7681,-4.7678,-4.7686,-4.7636,-4.7619,-4.7674,-4.7674,-4.7674,-4.7674,-4.7674,-4.7674,-4.6977,-4.7043,-4.7067,-4.7153,-4.7189,-4.7252,-4.7282,-4.7323,-4.7362,-4.7441,-4.749,-4.7521,-4.757,-4.7635,-4.7689,-4.7702,-4.7723,-4.7729,-4.7743,-4.7694,-4.7689,-4.7684,-4.7669,-4.7734,-4.7734,-4.7788,-4.7789,-4.7789]},{"header":{"parameterUnit":"m.s-1","parameterCategory":1,"la1":30.2991,"la2":30.254,"lo1":-89.0895,"lo2":-89.0444,"dy":0.0017,"dx":0.0017,"nx":28,"ny":28,"refTime":"2025-04-04T03:00:00:Z","depth":0,"parameterNumber":3,"parameterNumberName":"V-component_of_WINDS"},"data":[0,0,0,0,0,0,0,0,0,0,0,0,0,0,0,0,0,0,0,0,0,0,0,0,0,0,0,0,0,0,0,0,0,0,0,0,0,0,0,0,0,0,0,0,0,0,0,0,0,0,0,0,0,0,0,0,0,0,5.0325,5.0327,0,5.0458,5.0459,5.0461,5.046,5.0458,5.0457,5.0455,5.059,5.0595,5.06,0,0,0,0,0,0,0,0,0,0,0,0,0,5.0074,5.0078,5.0325,5.0327,5.0329,5.0457,5.0459,5.0461,5.046,5.0458,5.0456,5.0454,5.0589,5.0595,5.0601,0,0,0,0,0,0,0,0,0,0,0,0,0,5.0192,5.008,5.0325,5.0344,5.0347,5.0457,5.0459,5.0462,5.0461,5.0458,5.0456,5.0453,5.0586,5.0594,5.0602,5.0702,0,0,5.0626,5.0629,0,0,0,0,0,0,0,0,5.0185,5.0201,5.0339,5.0343,5.0346,5.044,5.042,5.0542,5.0462,5.0418,5.0455,5.0452,5.0542,5.0554,5.0584,5.0708,5.0714,5.0626,5.0631,5.0634,5.0637,0,0,0,0,0,0,0,5.0177,5.0196,5.0378,5.0341,5.0346,5.0346,5.036,5.0443,5.0493,5.0421,5.0422,5.0437,5.0544,5.0577,5.0587,5.0716,5.0626,5.0633,5.0638,5.0641,5.0932,5.0935,0,0,0,0,0,0,5.0165,5.0189,5.0374,5.0382,5.0258,5.0353,5.0368,5.0412,5.0492,5.0502,5.0439,5.0437,5.0564,5.0578,5.0592,5.0717,5.0634,5.0642,5.0646,5.0929,5.0933,5.0936,0,0,0,0,0,0,5.016,5.0182,5.0368,5.0286,5.0309,5.036,5.0409,5.0416,5.0449,5.0506,5.0514,5.0464,5.0563,5.0581,5.0675,5.0721,5.0645,5.0652,5.0926,5.093,5.0935,5.0966,0,0,0,0,0,0,5.0152,5.018,5.0218,5.0286,5.0314,5.0449,5.0412,5.0421,5.0463,5.0461,5.0531,5.054,5.0562,5.0664,5.0683,5.0731,5.0658,5.0922,5.0928,5.0933,5.0961,5.0971,5.0979,0,0,0,0,0,5.0143,5.0221,5.022,5.0242,5.0362,5.0452,5.0467,5.0491,5.0466,5.0506,5.0542,5.0538,5.0713,5.0673,5.0695,5.0746,5.0919,5.0926,5.0933,5.0957,5.0969,5.0979,0,0,0,0,0,0,5.0155,5.023,5.023,5.0331,5.0385,5.0451,5.0502,5.0503,5.0565,5.0561,5.0588,5.0604,5.0699,5.0731,5.0686,5.0848,5.0813,5.0824,5.0824,5.0836,5.0845,5.0835,5.0665,0,0,0,0,0,5.017,5.0236,5.0297,5.0381,5.0408,5.045,5.049,5.0504,5.0561,5.0584,5.0627,5.0683,5.0751,5.0795,5.086,5.0965,5.0982,5.1011,5.102,5.1027,5.1038,5.1098,5.1113,5.0959,5.0959,5.0958,0,0,5.0201,5.0249,5.0289,5.0385,5.0428,5.0497,5.0469,5.0543,5.0594,5.0595,5.0688,5.0721,5.0785,5.0886,5.0933,5.0917,5.1084,5.1036,5.1042,5.1048,5.1107,5.1121,5.1134,5.0963,5.0962,5.0962,0,0,5.0292,5.0335,5.041,5.0455,5.0521,5.0549,5.0567,5.0634,5.0657,5.075,5.0753,5.0815,5.093,5.0977,5.1015,5.1126,5.1125,5.1147,5.1195,5.1254,5.1266,5.1277,5.1319,5.1334,5.1156,5.1156,5.1156,0,5.0322,5.0425,5.0449,5.0523,5.0566,5.0571,5.0648,5.069,5.0775,5.0805,5.0785,5.0932,5.0975,5.1088,5.1116,5.1146,5.1169,5.1139,5.1263,5.1274,5.1284,5.1325,5.134,5.1159,5.1158,5.1158,5.1158,0,5.046,5.0531,5.0584,5.0667,5.0716,5.0791,5.0827,5.0874,5.0884,5.0914,5.101,5.1062,5.114,5.1167,5.1177,5.1283,5.1271,5.1257,5.1222,5.1301,5.134,5.1355,5.1162,5.1161,5.116,5.116,0,0,5.0562,5.0658,5.0677,5.0716,5.079,5.0847,5.0923,5.0999,5.104,5.1098,5.1164,5.1262,5.1251,5.1294,5.131,5.1361,5.1449,5.1341,5.1343,5.1361,5.1571,5.1583,5.16,5.1448,5.1451,5.1454,5.1566,0,5.0663,5.0799,5.0824,5.0943,5.1011,5.1017,5.1083,5.1137,5.1167,5.123,5.1263,5.1334,5.1312,5.1339,5.139,5.1427,5.1492,5.1419,5.1511,5.1514,5.1497,5.162,5.1632,5.1736,5.1581,5.1584,5.1586,0,5.0799,5.0862,5.0988,5.1056,5.1085,5.1145,5.1218,5.1277,5.1338,5.1357,5.1407,5.1417,5.1498,5.1459,5.1571,5.1522,5.1561,5.1585,5.159,5.1601,5.1556,5.1636,5.1769,5.1786,5.1609,5.1607,5.1606,0,5.0864,5.098,5.1072,5.1104,5.1184,5.1227,5.1262,5.1321,5.1366,5.1429,5.1459,5.1531,5.1571,5.1627,5.1657,5.1625,5.1768,5.173,5.1787,5.1787,5.1818,5.1816,5.1962,5.184,5.184,5.184,5.1839,0,5.0976,5.1053,5.1102,5.1159,5.1246,5.1274,5.136,5.1395,5.1447,5.1511,5.152,5.158,5.1615,5.168,5.1704,5.1795,5.1812,5.1831,5.1836,5.1831,5.1829,5.1858,5.1853,5.1844,5.1843,5.1842,5.1841,0,5.1064,5.11,5.12,5.1268,5.1287,5.1349,5.1408,5.1463,5.1494,5.1575,5.1595,5.1644,5.1721,5.1756,5.1851,5.1868,5.1972,5.1972,5.1952,5.1955,5.201,5.2005,5.2181,5.2207,5.2066,5.2067,5.2068,0,5.1134,5.1194,5.1269,5.1313,5.1349,5.1419,5.1466,5.1495,5.1543,5.1619,5.1666,5.1744,5.1808,5.1931,5.1975,5.2049,5.2052,5.2108,5.2063,5.2056,5.2055,5.2052,5.206,5.2117,5.2118,5.2119,5.212,0,5.1255,5.127,5.1336,5.1409,5.1464,5.1523,5.1581,5.1616,5.1656,5.1709,5.1789,5.1839,5.1937,5.2015,5.2092,5.2129,5.2132,5.2134,5.2152,5.2148,5.2135,5.2145,5.1977,5.213,5.2129,5.2129,5.2128,5.2128,5.1338,5.1392,5.1454,5.1528,5.1575,5.1629,5.1686,5.1724,5.1791,5.1873,5.1887,5.1972,5.2034,5.2138,5.2178,5.2246,5.2232,5.2257,5.2264,5.227,5.2274,5.2123,5.2259,5.2259,5.2259,5.2259,5.2258,0,5.1461,5.1502,5.1569,5.1651,5.1709,5.1707,5.1771,5.1821,5.1896,5.1953,5.2017,5.2109,5.2185,5.2236,5.2313,5.2358,5.2362,5.2377,5.2375,5.2385,5.2281,5.2259,5.2373,5.2373,5.2373,5.2373,5.2373,5.2373,5.1533,5.1626,5.1648,5.1765,5.1805,5.1889,5.1927,5.1977,5.2023,5.2127,5.219,5.2222,5.2278,5.2359,5.2429,5.2442,5.2471,5.2488,5.2501,5.2403,5.2391,5.238,5.236,5.2494,5.2494,5.26,5.26,5.2601]}]]